Location: Burham
(51.3167°N, 0.4833°E)
Time: 22:18:12
(UTC+00:00)

Daily predictions for brighter satellites

Satellite Brightness Start Highest point End
(mag) Time Altitude Azimuth Time Altitude Azimuth Time Altitude Azimuth
SAR-Lupe-2 3.8 16:27:18 10° SE 16:30:45 49° ENE 16:34:14 10° N
Cosmos 1666 3.1 16:29:59 10° N 16:33:14 34° ENE 16:36:30 10° SE
Spot 4 Rocket 4.3 16:28:15 10° S 16:33:22 75° WSW 16:38:33 10° NNW
ARGOS 3.5 16:29:11 10° S 16:34:36 76° WSW 16:40:03 10° NNW
Cosmos 1603 4.2 16:30:49 10° NNW 16:36:10 39° NE 16:41:26 10° ESE
PSLV R/B 3.8 16:35:06 10° S 16:39:22 77° WSW 16:43:41 10° NNW
Cosmos 1076 Rocket 3.5 16:36:12 10° N 16:40:34 64° ENE 16:44:53 10° SSE
CZ-2C R/B 3.9 16:37:21 10° N 16:42:15 39° WNW 16:47:03 10° SW
Meteor 1-31 Rocket 3.3 16:40:38 10° SE 16:44:01 35° ENE 16:47:26 10° N
Cosmos 1544 2.8 16:42:12 10° NNW 16:45:28 84° W 16:48:43 10° S
USA 306 3.3 16:43:37 10° W 16:45:39 28° SSW 16:47:33 10° SSE
Tsikada Rocket 4.4 16:40:59 10° SSW 16:47:11 69° WNW 16:53:21 10° N
SJ-7 4.3 16:45:00 10° SSE 16:48:58 72° ENE 16:53:00 10° N
SL-16 R/B 3.2 16:43:45 10° NW 16:49:17 53° WSW 16:54:46 10° S
ATLAS CENTAUR R/B 2.4 16:45:41 10° WNW 16:49:23 88° SSW 16:56:31 10° ESE
Cosmos 1238 Rocket 3.5 16:46:50 10° SSW 16:50:13 44° WNW 16:53:15 10° N
Cosmos 1602 3.9 16:48:33 10° N 16:52:10 46° ENE 16:55:46 10° SSE
RESURS DK-1 3.9 16:51:17 10° N 16:54:07 18° NE 16:56:12 13° ENE
USA 305 2.9 16:50:32 10° WNW 16:54:19 68° SSW 16:58:07 10° SE
Cosmos 1607 4.0 16:50:25 10° SW 16:56:46 86° SE 17:03:17 10° NE
Cosmos 1606 4.3 16:54:07 10° SW 16:57:27 33° WNW 17:00:49 10° N
CZ-4B R/B 3.9 16:55:26 10° SE 17:00:03 38° ENE 17:04:34 10° N
Cosmos 1943 3.1 16:54:41 10° NNW 17:00:20 70° ENE 17:05:58 10° SE
Helios 1A 4.2 16:58:42 12° NE 17:01:38 22° E 17:04:54 10° SE
Cosmos 1782 4.3 16:59:39 10° SE 17:02:07 16° E 17:03:02 15° ENE
ATLAS 2AS CENTAUR R/B 3.1 16:55:24 10° NW 17:02:09 45° NNE 17:08:34 10° E
Cosmos 1812 Rocket 4.5 16:58:43 10° SSE 17:02:23 27° E 17:06:05 10° NNE
Cosmos 1500 3.1 17:00:22 10° NNW 17:03:55 77° W 17:07:25 10° S
SMAP 3.0 17:01:59 10° SSE 17:06:38 76° ENE 17:11:18 10° NNW
Helios 1B rocket 3.1 17:03:16 10° S 17:07:08 57° WSW 17:11:03 10° NNW
CZ-4B R/B 3.5 17:06:25 10° SSE 17:09:59 66° ENE 17:13:38 10° N
Cosmos 407 Rocket 3.5 17:06:42 10° NNW 17:11:48 55° ENE 17:16:50 10° SE
SL-16 R/B 4.2 17:07:20 10° N 17:12:41 31° NW 17:18:01 10° WSW
Cosmos 2297 Rocket 3.6 17:08:00 10° WSW 17:13:02 32° NW 17:18:07 10° NNE
SOZ 4.3 17:12:13 10° WSW 17:14:22 58° SSE 17:16:19 20° E
Radarsat Rocket 4.2 17:09:01 10° SE 17:14:32 46° ENE 17:20:25 10° N
Cosmos 405 Rocket 3.6 17:12:32 10° SSW 17:16:14 49° WNW 17:20:01 10° N
ISS -1.1 17:15:19 10° W 17:17:55 21° SW 17:20:31 10° SSE
Cosmos 2219 3.6 17:13:53 10° SW 17:19:26 61° NW 17:25:04 10° NNE
Cosmos 2251 Rocket 3.5 17:14:15 10° NNW 17:19:36 68° ENE 17:24:57 10° SE
Lacrosse 5 3.2 17:26:05 10° S 17:30:01 23° SE 17:31:43 20° E
COSMO-SKYMED 1 3.4 17:29:30 23° ENE 17:31:10 29° E 17:34:58 10° SSE
Cosmos-2242 3.0 17:27:31 10° S 17:31:49 64° E 17:36:06 10° NNE
Lacrosse 4 Rocket 1.8 17:27:47 10° NW 17:32:07 67° WSW 17:36:20 10° SSE
Cosmos 1833 Rocket 4.0 17:28:43 10° NNW 17:32:51 20° NE 17:33:48 19° NE
Cosmos 2082 3.9 17:28:53 10° SW 17:34:29 71° WNW 17:39:46 12° NNE
Cosmos 2058 Rocket 4.1 17:30:38 10° SSW 17:34:54 47° WNW 17:39:11 10° N
APEX 2.7 17:37:09 10° S 17:39:58 43° ESE 17:39:58 43° ESE
Meteor 1-25 Rocket 4.1 17:35:38 10° NNW 17:41:21 82° ENE 17:46:57 10° SSE
USA 234 3.7 17:37:35 22° ENE 17:41:33 45° SE 17:47:46 10° SSW
Meteor 2-2 Rocket 4.3 17:35:56 10° S 17:41:34 57° E 17:47:20 10° NNE
Cosmos 2344 3.7 17:35:14 10° SSW 17:42:28 52° ESE 17:47:05 22° ENE
Cosmos 2221 3.9 17:39:03 10° SE 17:41:02 20° ESE 17:41:02 20° ESE
Cosmos 1190 Rocket 4.0 17:38:38 10° NNW 17:43:55 61° ENE 17:49:09 10° SE
Cosmos 1812 2.5 17:41:13 10° S 17:44:53 84° E 17:47:41 17° NNE
Cosmos 1818 3.9 17:41:11 10° SSW 17:46:22 48° ESE 17:48:46 29° ENE
USA 276 2.4 17:45:54 10° WSW 17:48:02 40° S 17:48:02 40° S
Cosmos 2026 Rocket 4.1 17:42:40 10° SSE 17:48:44 53° E 17:54:53 10° NNE
Cosmos 2195 Rocket 4.4 17:49:33 10° S 17:55:48 69° E 18:02:02 10° NNE
CZ-4B R/B 4.3 18:01:43 26° NE 18:01:43 26° NE 18:05:15 10° N
Cosmos 2263 Rocket 2.8 17:55:11 10° SW 18:00:37 54° NW 18:05:03 16° NNE
Cosmos 1844 Rocket 3.0 17:55:27 10° S 18:00:39 43° ESE 18:02:02 36° ENE
Meteor 1-26 Rocket 4.5 17:56:44 10° SSE 18:01:58 43° E 18:04:18 29° NE
Cosmos 1766 Rocket 3.6 17:58:42 10° N 18:02:59 52° ENE 18:07:13 10° SSE
YAOGAN 1 3.1 18:07:03 40° NNE 18:07:03 40° NNE 18:10:17 10° N
Cosmos 1092 Rocket 3.8 18:00:06 10° S 18:06:11 71° E 18:12:19 10° NNE
Nadezhda 4 Rocket 4.2 18:00:12 10° SSW 18:06:18 69° WNW 18:12:26 10° N
Cosmos 1933 3.2 18:03:28 10° S 18:07:25 66° E 18:07:55 58° NE
Cosmos 1420 Rocket 4.3 18:02:58 10° S 18:07:54 43° ESE 18:08:28 42° E
Cosmos 2227 4.2 18:03:26 10° SSW 18:09:13 88° ESE 18:12:32 27° NNE
Cosmos 2227 Rocket 4.0 18:05:01 10° W 18:09:35 24° NW 18:14:00 11° NNE
Cosmos 2082 Rocket 3.9 18:06:35 10° N 18:09:22 16° NNE 18:09:22 16° NNE
YAOGAN 3 4.5 18:06:54 10° SSE 18:11:09 62° ENE 18:15:26 10° N
ADEOS 3.4 18:06:11 10° SSE 18:11:24 78° ENE 18:16:38 10° NNW
Meteor 1-5 Rocket 4.1 18:06:22 10° N 18:12:04 75° ENE 18:17:55 10° SSE
Cosmos 1624 Rocket 4.2 18:10:46 10° S 18:15:39 45° ESE 18:15:39 45° ESE
BREEZE-M DEB (TANK) 3.2 18:14:01 10° WSW 18:15:04 28° WSW 18:15:04 28° WSW
SKYMED 2 3.4 18:18:08 45° NNE 18:19:26 83° ESE 18:23:48 10° SSW
CZ-4B R/B 3.5 18:20:41 45° NNE 18:20:41 45° NNE 18:23:44 10° N
SL-08 R/B 3.1 18:25:44 68° E 18:25:50 68° ESE 18:30:27 10° S
Cosmos 192 4.2 18:23:13 10° SSW 18:28:06 74° ESE 18:28:35 67° ENE
RESURS DK-1 2.5 18:28:24 10° NNW 18:31:56 64° NNW 18:31:56 64° NNW
Helios 1A 3.9 18:35:01 25° N 18:37:06 45° WNW 18:41:03 10° SW
Cosmos 1782 3.5 18:33:47 10° SSW 18:37:36 51° WNW 18:38:16 45° NW
Cosmos 676 Rocket 4.0 18:32:29 10° NNW 18:37:50 85° WSW 18:40:05 36° SSE
EO 1 Delta rocket 4.5 18:43:42 10° S 18:50:16 74° W 18:55:31 10° NNW
ATLAS 2AS CENTAUR R/B 2.9 18:46:35 10° NW 18:53:28 67° SW 18:56:38 32° SSE
CZ-4B DEB 4.2 18:53:03 23° S 18:56:38 79° WSW 19:02:14 10° NNW
Cosmos 1241 Rocket 4.4 18:54:38 10° SSW 19:00:35 69° SSE 19:00:35 69° SSE
ADEOS Rocket 4.2 19:09:44 27° N 19:09:44 27° N 19:12:23 10° N
COSMO-SKYMED 1 4.0 19:06:43 34° NW 19:07:23 36° WNW 19:11:22 10° SW
Cosmos 2056 Rocket 3.8 19:04:11 10° SSW 19:09:06 68° WSW 19:09:06 68° WSW
Lacrosse 5 2.7 19:07:23 10° SW 19:10:56 46° SW 19:10:56 46° SW
Cosmos 1844 3.8 19:06:47 10° SW 19:12:19 73° W 19:12:19 73° W
COSMOS 2455 4.1 19:07:19 10° SSW 19:10:14 29° S 19:10:14 29° S
Timation 2 Rocket 4.0 19:09:36 10° SW 19:15:34 71° NW 19:15:41 71° NW
Cosmos 1833 Rocket 3.7 19:12:10 10° NNW 19:15:30 36° NNW 19:15:30 36° NNW
Cosmos 2221 4.5 19:15:44 10° SW 19:17:46 24° SW 19:17:46 24° SW
S3M 4.4 19:15:39 10° N 19:20:09 52° NNW 19:20:09 52° NNW
USA 234 3.2 19:24:56 80° NNW 19:24:56 80° NNW 19:31:27 10° WSW
Cosmos 1844 Rocket 3.9 19:39:19 10° WSW 19:43:43 39° WNW 19:43:43 39° WNW
Cosmos 2263 Rocket 4.4 19:42:18 10° WNW 19:45:52 17° NNW 19:46:45 16° NNW
Cosmos 2082 Rocket 4.4 19:50:04 10° NNW 19:51:11 16° NNW 19:51:11 16° NNW
Cosmos 2344 4.0 19:49:47 10° WSW 19:56:53 51° NNW 19:57:06 51° NNW
